Location: Middlebury
(44.0133°N, 73.1813°W)
Time: 03:21:46
(UTC-05:00)

Tiangong - Visible Passes

Search period start: 29 January 2022 00:00
Search period end: 08 February 2022 00:00
Orbit: 381 x 387 km, 41.5° (Epoch: 28 January)

Date Brightness Start Highest point End Pass type
(mag) Time Alt. Az. Time Alt. Az. Time Alt. Az.
29 Jan 3.0 17:34:42 10° SSW 17:37:08 20° SSE 17:39:34 10° ESE visible
29 Jan 3.0 19:10:31 10° WSW 19:12:15 27° SW 19:12:15 27° SW visible
30 Jan 2.0 18:10:50 10° WSW 18:13:49 39° SSE 18:15:19 23° ESE visible
30 Jan 4.6 19:47:20 10° W 19:47:31 11° W 19:47:31 11° W visible
31 Jan 1.5 18:47:30 10° WSW 18:50:34 53° S 18:50:34 53° S visible
01 Feb 1.7 17:47:42 10° WSW 17:50:47 48° S 17:53:34 12° E visible
01 Feb 3.5 19:24:21 10° W 19:25:46 23° WSW 19:25:46 23° WSW visible
02 Feb 1.6 18:24:26 10° W 18:27:33 52° S 18:28:47 30° ESE visible
03 Feb 2.3 19:01:17 10° W 19:04:00 35° SSW 19:04:00 35° SSW visible
04 Feb 1.9 18:01:17 10° W 18:04:21 46° S 18:07:04 12° ESE visible
04 Feb 4.2 19:38:29 10° WSW 19:39:17 14° WSW 19:39:17 14° WSW visible
05 Feb 2.9 18:38:12 10° W 18:40:56 26° SSW 18:42:24 18° SSE visible
06 Feb 2.5 17:38:04 10° W 17:41:02 36° SSW 17:43:59 10° SE visible
06 Feb 4.0 19:16:03 10° SW 19:17:17 12° SSW 19:17:50 11° SSW visible
07 Feb 3.6 18:15:11 10° WSW 18:17:27 18° SSW 18:19:44 10° SSE visible
